FLOCK 4V-19

Last updated on Fri Nov 06 2020 00:02:03 GMT+0000 (Coordinated Universal Time)

1 46609U 20061BH 20310.66319508 .00000767 00000-0 43575-4 0 9996 2 46609 97.4567 22.6347 0003990 25.1364 335.0062 15.15827459 4124
UTC large
Height (km)
Speed (km/s)
/
Latitude / Longitude
Inclination (degrees)
Orbital Period (minutes)
Azimuth
Elevation
Range (km)
Doppler Factor

Next 0 passes for location: London (51.5072 / 0.1276)

Sorry there are no passes over London.